This demonstration page uses our WeatherBlox Daily Observations layout. Learn more.

40.92945, -100.16068

Hourly Observations for December 1, 2015

Temp ( °F °C ) Dew Point ( °F °C ) Humidity (%) Winds ( mph kmh ) Pressure ( in mb ) Visibility ( mi km ) Precip ( " mm )
12:15 am 00:15 Cloudy with Light Snow 29 -1.8 25 -3.7 87 87 WNW 17 28 29.91 1013 5 8.0467 N/A
12:35 am 00:35 Cloudy with Light Snow 29 -1.8 26 -3.5 88 88 W 12 19 29.91 1013 5 8.0467 N/A
12:55 am 00:55 Cloudy with Light Snow 28 -2 26 -3.5 90 90 W 12 19 29.91 1013 3 4.82802 N/A
1:15 am 01:15 Cloudy with Light Snow 28 -2.2 25 -3.7 90 90 W 8 13 29.91 1013 5 8.0467 N/A
1:35 am 01:35 Cloudy with Light Snow 28 -2.2 25 -3.7 90 90 W 9 15 29.88 1012 5 8.0467 N/A
1:55 am 01:55 Cloudy with Light Snow 28 -2.3 25 -3.9 89 89 W 9 15 29.88 1012 5 8.0467 N/A
2:15 am 02:15 Cloudy with Light Snow 28 -2.5 25 -3.7 92 92 W 9 15 29.88 1012 3 4.82802 N/A
2:35 am 02:35 Cloudy with Light Snow 28 -2.3 26 -3.5 92 92 W 9 15 29.88 1012 3 4.82802 N/A
2:55 am 02:55 Cloudy with Light Snow 28 -2 27 -3 93 93 W 14 22 29.88 1012 2.5 4.02335 N/A
3:15 am 03:15 Cloudy with Light Snow 29 -1.5 27 -2.8 91 91 WNW 15 24 29.85 1011 5 8.0467 N/A
3:35 am 03:35 Cloudy with Light Snow 29 -1.4 27 -2.9 90 90 WNW 13 20 29.85 1011 5 8.0467 N/A
3:55 am 03:55 Windy with Snow Likely 29 -1.5 27 -2.7 92 92 WNW 20 31 29.85 1011 5 8.0467 N/A
4:15 am 04:15 Cloudy 30 -1.3 27 -3 88 88 WNW 18 30 29.85 1011 10 16.0934 N/A
4:35 am 04:35 Cloudy 29 -1.5 26 -3.5 86 86 WNW 14 22 29.85 1011 10 16.0934 N/A
4:55 am 04:55 Cloudy with Light Snow 29 -1.7 26 -3.5 88 88 WNW 13 20 29.88 1012 7 11.26538 N/A
5:15 am 05:15 Cloudy 29 -1.7 26 -3.2 90 90 WNW 14 22 29.85 1011 7 11.26538 N/A
5:35 am 05:35 Cloudy with Light Snow 29 -1.8 26 -3.4 89 89 WNW 16 26 29.85 1011 7 11.26538 N/A
5:55 am 05:55 Partly Cloudy 28 -2.3 25 -4.1 88 88 WNW 16 26 29.88 1012 10 16.0934 0 0
6:15 am 06:15 Partly Cloudy 27 -2.7 24 -4.5 88 88 WNW 13 20 29.88 1012 10 16.0934 N/A
6:35 am 06:35 Cloudy 27 -2.7 24 -4.5 88 88 WNW 14 22 29.88 1012 10 16.0934 N/A
6:55 am 06:55 Partly Cloudy 27 -3 23 -5.2 85 85 WNW 14 22 29.88 1012 10 16.0934 N/A
7:15 am 07:15 Partly Cloudy 27 -3 22 -5.6 82 82 WNW 16 26 29.88 1012 10 16.0934 N/A
7:35 am 07:35 Mostly Cloudy 27 -2.9 22 -5.6 82 82 WNW 13 20 29.88 1012 10 16.0934 N/A
7:55 am 07:55 Partly Cloudy 25 -3.8 21 -6.2 84 84 WNW 9 15 29.88 1012 10 16.0934 N/A
8:15 am 08:15 Partly Cloudy 26 -3.6 22 -5.8 85 85 WNW 10 17 29.88 1012 10 16.0934 N/A
8:35 am 08:35 Partly Cloudy 27 -3 22 -5.6 82 82 WNW 13 20 29.88 1012 10 16.0934 N/A
8:55 am 08:55 Mostly Cloudy 29 -1.8 23 -5 79 79 WNW 17 28 29.88 1012 10 16.0934 N/A
9:15 am 09:15 Cloudy 29 -1.8 23 -5.2 78 78 WNW 16 26 29.88 1012 10 16.0934 N/A
9:35 am 09:35 Cloudy 29 -1.7 23 -5.1 78 78 WNW 14 22 29.91 1013 10 16.0934 N/A
9:55 am 09:55 Cloudy 29 -1.4 23 -4.9 77 77 WNW 17 28 29.88 1012 10 16.0934 N/A
10:15 am 10:15 Cloudy with Light Snow 31 -0.8 24 -4.5 76 76 NW 15 24 29.88 1012 7 11.26538 N/A
10:35 am 10:35 Cloudy with Light Snow 31 -0.7 24 -4.6 75 75 WNW 18 30 29.88 1012 10 16.0934 N/A
10:55 am 10:55 Cloudy 31 -0.3 25 -4.1 76 76 WNW 17 28 29.88 1012 10 16.0934 N/A
11:15 am 11:15 Cloudy 32 0 24 -4.4 73 73 WNW 21 33 29.88 1012 10 16.0934 N/A
11:35 am 11:35 Cloudy 33 0.5 25 -3.9 73 73 WNW 22 35 29.88 1012 10 16.0934 N/A
11:55 am 11:55 Cloudy 32 0.1 24 -4.3 73 73 NW 20 31 29.88 1012 10 16.0934 N/A
12:15 pm 12:15 Cloudy with Light Snow 32 0 24 -4.2 74 74 NW 17 28 29.88 1012 4 6.43736 N/A
12:35 pm 12:35 Cloudy with Light Snow 31 -0.3 26 -3.5 79 79 NW 16 26 29.88 1012 1.5 2.41401 N/A
12:55 pm 12:55 Cloudy with Light Snow 31 -0.3 26 -3.1 82 82 NW 16 26 29.88 1012 3 4.82802 N/A
1:15 pm 13:15 Windy with Snow Likely 31 -0.6 27 -2.8 85 85 WNW 20 31 29.91 1013 1.25 2.011675 N/A
1:35 pm 13:35 Cloudy with Light Snow 31 -0.8 28 -2.5 88 88 WNW 16 26 29.91 1013 0.75 1.207005 N/A
1:55 pm 13:55 Cloudy with Light Snow 30 -0.9 28 -2.2 91 91 WNW 16 26 29.91 1013 1 1.60934 N/A
2:15 pm 14:15 Cloudy with Light Snow 30 -1 28 -2.2 92 92 WNW 15 24 29.91 1013 1.5 2.41401 N/A
2:35 pm 14:35 Cloudy with Light Snow 31 -0.6 28 -2 90 90 WNW 13 20 29.91 1013 2.5 4.02335 N/A
2:55 pm 14:55 Cloudy with Light Snow 31 -0.3 29 -1.8 90 90 WNW 16 26 29.91 1013 7 11.26538 N/A
3:15 pm 15:15 Cloudy with Light Snow 31 -0.3 28 -2.1 88 88 WNW 16 26 29.91 1013 4 6.43736 N/A
3:35 pm 15:35 Cloudy with Light Snow 31 -0.3 28 -2.1 88 88 WNW 15 24 29.91 1013 4 6.43736 N/A
3:55 pm 15:55 Cloudy with Light Snow 31 -0.3 28 -2.1 88 88 WNW 17 28 29.91 1013 5 8.0467 N/A
4:15 pm 16:15 Cloudy with Light Snow 31 -0.4 28 -2.2 88 88 NW 13 20 29.91 1013 3 4.82802 N/A
4:35 pm 16:35 Cloudy with Light Snow 31 -0.3 28 -2.2 87 87 NW 15 24 29.94 1014 4 6.43736 N/A
4:55 pm 16:55 Cloudy with Light Snow 31 -0.3 28 -2.3 87 87 NW 16 26 29.94 1014 7 11.26538 N/A
5:15 pm 17:15 Cloudy with Light Snow 31 -0.5 28 -2.3 88 88 NW 10 17 29.94 1014 7 11.26538 N/A
5:35 pm 17:35 Cloudy with Light Snow 31 -0.5 28 -2.5 87 87 NW 15 24 29.94 1014 7 11.26538 N/A
5:55 pm 17:55 Cloudy with Light Snow 30 -1.1 27 -2.6 90 90 WNW 13 20 29.97 1015 10 16.0934 N/A
6:15 pm 18:15 Cloudy 31 -0.6 27 -2.7 86 86 WNW 15 24 30 1016 10 16.0934 N/A
6:35 pm 18:35 Cloudy 31 -0.8 27 -2.6 88 88 NW 14 22 30 1016 10 16.0934 N/A
6:55 pm 18:55 Cloudy 31 -0.6 27 -2.6 87 87 NW 13 20 30 1016 10 16.0934 N/A
7:15 pm 19:15 Cloudy 31 -0.6 28 -2.5 87 87 NW 12 19 30 1016 10 16.0934 N/A
7:35 pm 19:35 Cloudy 31 -0.5 28 -2.5 87 87 NW 13 20 30 1016 10 16.0934 N/A
7:55 pm 19:55 Cloudy 31 -0.5 27 -3 83 83 NW 16 26 30 1016 10 16.0934 N/A
8:15 pm 20:15 Cloudy 31 -0.7 27 -3 85 85 NW 14 22 30.03 1017 10 16.0934 N/A
8:35 pm 20:35 Cloudy with Light Snow 31 -0.8 27 -3 85 85 NW 14 22 30.03 1017 5 8.0467 N/A
8:55 pm 20:55 Cloudy with Light Snow 31 -0.7 27 -2.8 86 86 NW 16 26 30.03 1017 10 16.0934 N/A
9:15 pm 21:15 Cloudy 31 -0.5 27 -2.8 85 85 NW 16 26 30 1016 10 16.0934 N/A
9:35 pm 21:35 Cloudy 31 -0.5 27 -2.7 85 85 NW 16 26 30 1016 10 16.0934 N/A
9:55 pm 21:55 Cloudy 31 -0.5 27 -2.6 86 86 NW 16 26 30 1016 10 16.0934 N/A
10:15 pm 22:15 Cloudy 31 -0.4 27 -2.6 85 85 NW 15 24 30.06 1018 10 16.0934 N/A
10:35 pm 22:35 Cloudy 31 -0.4 27 -2.6 85 85 NW 15 24 30.06 1018 10 16.0934 N/A
10:55 pm 22:55 Cloudy 32 -0.2 27 -2.7 83 83 NW 15 24 30.06 1018 10 16.0934 N/A
11:15 pm 23:15 Cloudy 32 -0.1 27 -2.7 83 83 NW 15 24 30.06 1018 10 16.0934 N/A
11:35 pm 23:35 Cloudy 32 0 27 -2.6 83 83 NW 15 24 30.06 1018 10 16.0934 N/A
11:55 pm 23:55 Cloudy 32 0 27 -2.6 83 83 NW 13 20 30.06 1018 10 16.0934 N/A

Powered by AerisWeather